Home   Weather   Martigny   Past weeks

Flag for Switzerland Past Weather in Martigny, Valais, Switzerland — Yesterday and Last 2 Weeks

Now
69 °F

Partly sunny.


Feels Like: 69 °F
Forecast: 55 / 65 °F
Wind: 3 mph from Southwest

Location: Sion

Current Time: Jun 28, 2017 at 12:43:06 pm

Latest Report: Jun 28, 2017 at 11:00 am


Visibility: 19 mi

Pressure: 29.57 "Hg

Humidity: 63%

Dew Point: 56 °F

Location of MartignyLocation

Past Weather in Martigny — Graph

°F

Martigny Temperature Yesterday

Maximum temperature yesterday: 81 °F (at 4:00 pm)
Minimum temperature yesterday: 62 °F (at 5:00 am)
Average temperature yesterday: 71 °F

High & Low Weather Summary for the Past Weeks

 TemperatureHumidityPressure
High96 °F (Jun 23, 4:00 pm)94% (Jun 27, 6:00 am)30.23 "Hg (Jun 27, 6:00 am)
Low58 °F (Jun 17, 6:00 am)20% (Jun 23, 6:00 pm)29.57 "Hg (Jun 28, 11:00 am)
Average75 °F58%29.97 "Hg
* Reported Jun 13 11:00 am — Jun 28 11:00 am, Martigny. Weather by CustomWeather, © 2017

Note: Actual official high and low records may vary slightly from our data, if they occured in-between our weather recording intervals... More about our weather records

Advertising

Martigny Weather History for the Previous 24 Hours

Scroll right to see more
 ConditionsComfort  
Time TempWeatherWind HumidityBarometerVisibility
11:00 am
Wed, Jun 28
69 °FPartly sunny.3 mph63%29.57 "Hg19 mi
10:00 am68 °FMild.2 mph68%29.60 "HgN/A
9:00 am67 °FMild.2 mph75%29.62 "HgN/A
8:00 am64 °FPartly sunny.3 mph82%29.65 "Hg16 mi
7:00 am61 °FCool.2 mph87%29.66 "HgN/A
6:00 am61 °FCool.2 mph91%29.64 "HgN/A
5:00 am62 °FHeavy rain. Overcast.7 mph85%29.64 "Hg6 mi
4:00 am63 °FMild.7 mph85%29.67 "HgN/A
3:00 am63 °FMild.25 mph81%29.64 "HgN/A
2:00 am67 °FMild.7 mph81%29.60 "HgN/A
1:00 am69 °FMild.1 mph74%29.60 "HgN/A
12:00 am69 °FMild.2 mph73%29.61 "HgN/A
11:00 pm
Tue, Jun 27
70 °FOvercast.2 mph76%29.61 "Hg12 mi
10:00 pm74 °FMild.3 mph69%29.62 "HgN/A
9:00 pm75 °FMild.6 mph70%29.60 "HgN/A
8:00 pm78 °FWarm.3 mph56%29.59 "HgN/A
7:00 pm79 °FWarm.5 mph52%29.62 "HgN/A
6:00 pm79 °FWarm.8 mph51%29.64 "HgN/A
5:00 pm79 °FOvercast.7 mph52%29.66 "Hg19 mi
4:00 pm81 °FWarm.3 mph47%29.66 "HgN/A
3:00 pm79 °FWarm.5 mph44%29.69 "HgN/A
2:00 pm78 °FOvercast.2 mph52%29.71 "Hg19 mi
1:00 pm76 °FMild.3 mph50%29.74 "HgN/A
12:00 pm73 °FMild.3 mph61%29.78 "HgN/A
Weather by CustomWeather, © 2017

See weather overviewHow to use our weather pages